Voltar ao catálogo

FENGYUN 1C DEB

AtivoSSO
NORAD 32332·DEBRIS·🇨🇳 China

Lançado May 10, 1999 de Taiyuan Satellite Launch Center

Loading…

Próximas Passagens (próximas 24 horas)

TLE

AtualizadoSource: Space-Track

Época: Sep 13, 2026, 10:43 UTC

1 32332U 99025CXZ 26256.44688091  .00001731  00000-0  88853-3 0  9996
2 32332  99.1139 314.0819 0281178 278.0846  78.8509 13.98332688968747

Acompanhe FENGYUN 1C DEB em tempo real com AllMySat

Download on the App Store